This is the latest recevied weather packets stored in our database for station/object JH0FOG-13. If no packets are shown the sender has not sent any weather packets the latest 10 day(s).
| Time | Temp. | Humidity | Pressure | Rain* | Wind** | Luminosity | Snow |
|---|---|---|---|---|---|---|---|
| 1777461602 | 11.11° C | 86% | 1019.6 hPa | 0 mm | - | - | - |
| 1777460402 | 11.67° C | 85% | 1019.5 hPa | 0 mm | - | - | - |
| 1777459202 | 11.67° C | 85% | 1019.3 hPa | 0 mm | - | - | - |
| 1777458002 | 11.67° C | 85% | 1019 hPa | 0 mm | - | - | - |
| 1777455602 | 12.22° C | 83% | 1018.4 hPa | 0 mm | - | - | - |
| 1777454402 | 12.22° C | 82% | 1018.3 hPa | 0 mm | - | - | - |
| 1777453202 | 12.78° C | 80% | 1018.3 hPa | 0 mm | - | - | - |
| 1777452002 | 12.78° C | 80% | 1017.9 hPa | 0 mm | - | - | - |
| 1777450802 | 12.78° C | 78% | 1017.4 hPa | 0 mm | - | - | - |
| 1777449602 | 12.78° C | 79% | 1017.2 hPa | 0 mm | - | - | - |
| 1777448402 | 13.33° C | 78% | 1017.1 hPa | 0 mm | - | - | - |
| 1777447202 | 13.33° C | 77% | 1016.8 hPa | 0 mm | - | - | - |
| 1777446002 | 13.33° C | 77% | 1016.5 hPa | 0 mm | - | - | - |
| 1777444802 | 13.33° C | 78% | 1016.4 hPa | 0 mm | - | - | - |
| 1777443602 | 12.78° C | 79% | 1016.3 hPa | 0 mm | - | - | - |
| 1777442402 | 13.33° C | 79% | 1016.2 hPa | 0 mm | - | - | - |
| 1777441202 | 13.33° C | 79% | 1016.2 hPa | 0 mm | - | - | - |
| 1777440002 | 12.78° C | 82% | 1016.4 hPa | 0 mm | - | - | - |
| 1777438802 | 13.33° C | 80% | 1016.5 hPa | 0 mm | - | - | - |
| 1777437602 | 13.33° C | 80% | 1016.2 hPa | 0 mm | - | - | - |
| 1777407603 | 13.89° C | 83% | 1012.6 hPa | 0 mm | - | - | - |
| 1777406403 | 13.89° C | 84% | 1012.2 hPa | 0.25 mm | - | - | - |
| 1777404003 | 13.89° C | 88% | 1012.1 hPa | 0.25 mm | - | - | - |
| 1777400403 | 13.89° C | 92% | 1012 hPa | 0 mm | - | - | - |
| 1777396803 | 13.89° C | 91% | 1011.7 hPa | 0.76 mm | - | - | - |
* Rain latest hour (hover to see other rain measurements)
** Current wind speed in m/s (hover to see current wind gust speed)